Wetterdaten: aktuell Freitag, 17.08.2018 03:15
Datum Zeit Temp. I. Temp. A. Feuchte I. Feuchte A. Luftdruck Regen Wind Richtung Richtung Taupunkt Windchill Windben
17.08.2018 03:15 23,7 C 16,9 C 52 % 79 % 1012,2 hPa 0,0 l/m 0,0 km/h S-SO 157 13,2 C 16,9 C 1,6 km/h
17.08.2018 03:10 23,7 C 17,0 C 52 % 79 % 1012,2 hPa 0,0 l/m 0,0 km/h S-SO 157 13,3 C 17,0 C 1,6 km/h
17.08.2018 03:05 23,8 C 17,1 C 52 % 78 % 1012,1 hPa 0,0 l/m 3,2 km/h S-SO 157 13,2 C 17,1 C 4,8 km/h
17.08.2018 03:00 23,8 C 17,1 C 52 % 78 % 1012,1 hPa 0,0 l/m 3,2 km/h S-SO 157 13,2 C 17,1 C 4,8 km/h
17.08.2018 02:55 23,8 C 17,2 C 52 % 77 % 1012,1 hPa 0,0 l/m 3,2 km/h S-SO 157 13,1 C 17,2 C 4,8 km/h
17.08.2018 02:50 23,9 C 17,3 C 52 % 78 % 1012,0 hPa 0,0 l/m 3,2 km/h S-SO 157 13,4 C 17,3 C 4,8 km/h
17.08.2018 02:45 23,9 C 17,5 C 52 % 77 % 1012,2 hPa 0,0 l/m 1,6 km/h SO 135 13,4 C 17,5 C 4,8 km/h
17.08.2018 02:40 24,0 C 17,7 C 52 % 77 % 1012,1 hPa 0,0 l/m 3,2 km/h SO 135 13,6 C 17,7 C 4,8 km/h
17.08.2018 02:35 24,0 C 17,8 C 52 % 76 % 1012,2 hPa 0,0 l/m 4,8 km/h SO 135 13,5 C 17,8 C 4,8 km/h
17.08.2018 02:30 24,1 C 17,7 C 52 % 76 % 1012,3 hPa 0,0 l/m 3,2 km/h S-SO 157 13,4 C 17,7 C 4,8 km/h
17.08.2018 02:25 24,1 C 17,7 C 51 % 76 % 1012,3 hPa 0,0 l/m 1,6 km/h S-SO 157 13,4 C 17,7 C 3,2 km/h
17.08.2018 02:20 24,1 C 17,7 C 51 % 76 % 1012,2 hPa 0,0 l/m 1,6 km/h S-SO 157 13,4 C 17,7 C 4,8 km/h
17.08.2018 02:15 24,2 C 17,7 C 51 % 76 % 1012,3 hPa 0,0 l/m 3,2 km/h SO 135 13,4 C 17,7 C 6,4 km/h
17.08.2018 02:10 24,2 C 17,6 C 51 % 77 % 1012,3 hPa 0,0 l/m 4,8 km/h SO 135 13,5 C 17,6 C 6,4 km/h
17.08.2018 02:05 24,2 C 17,4 C 51 % 78 % 1012,2 hPa 0,0 l/m 3,2 km/h O-SO 112 13,5 C 17,4 C 4,8 km/h
17.08.2018 02:00 24,2 C 17,3 C 51 % 79 % 1012,3 hPa 0,0 l/m 1,6 km/h O-SO 112 13,6 C 17,3 C 3,2 km/h
17.08.2018 01:55 24,2 C 17,3 C 51 % 78 % 1012,3 hPa 0,0 l/m 0,0 km/h N 0 13,4 C 17,3 C 0,0 km/h
17.08.2018 01:50 24,3 C 17,3 C 51 % 78 % 1012,3 hPa 0,0 l/m 0,0 km/h N 0 13,4 C 17,3 C 0,0 km/h
17.08.2018 01:45 24,3 C 17,3 C 51 % 78 % 1012,3 hPa 0,0 l/m 0,0 km/h N 0 13,4 C 17,3 C 0,0 km/h
17.08.2018 01:40 24,3 C 17,3 C 51 % 78 % 1012,4 hPa 0,0 l/m 0,0 km/h O-SO 112 13,4 C 17,3 C 1,6 km/h
17.08.2018 01:35 24,4 C 17,4 C 50 % 78 % 1012,4 hPa 0,0 l/m 0,0 km/h O-SO 112 13,5 C 17,4 C 1,6 km/h
17.08.2018 01:30 24,4 C 17,4 C 50 % 78 % 1012,4 hPa 0,0 l/m 0,0 km/h O-SO 112 13,5 C 17,4 C 1,6 km/h
17.08.2018 01:25 24,5 C 17,4 C 50 % 78 % 1012,5 hPa 0,0 l/m 0,0 km/h O-SO 112 13,5 C 17,4 C 1,6 km/h
17.08.2018 01:20 24,6 C 17,6 C 50 % 78 % 1012,5 hPa 0,0 l/m 0,0 km/h O-SO 112 13,7 C 17,6 C 3,2 km/h
17.08.2018 01:15 24,6 C 17,7 C 50 % 78 % 1012,5 hPa 0,0 l/m 3,2 km/h O-SO 112 13,8 C 17,7 C 4,8 km/h
17.08.2018 01:10 24,7 C 17,8 C 49 % 78 % 1012,5 hPa 0,0 l/m 3,2 km/h O-SO 112 13,9 C 17,8 C 4,8 km/h
17.08.2018 01:05 24,7 C 17,9 C 49 % 78 % 1012,5 hPa 0,0 l/m 3,2 km/h O-SO 112 14,0 C 17,9 C 4,8 km/h
17.08.2018 01:00 24,8 C 18,1 C 49 % 77 % 1012,5 hPa 0,0 l/m 1,6 km/h O-SO 112 14,0 C 18,1 C 3,2 km/h
17.08.2018 00:55 24,8 C 18,1 C 49 % 77 % 1012,6 hPa 0,0 l/m 0,0 km/h O-SO 112 14,0 C 18,1 C 3,2 km/h
17.08.2018 00:50 24,9 C 17,9 C 49 % 77 % 1012,5 hPa 0,0 l/m 1,6 km/h O-SO 112 13,8 C 17,9 C 4,8 km/h
17.08.2018 00:45 25,0 C 17,8 C 49 % 78 % 1012,4 hPa 0,0 l/m 3,2 km/h O-SO 112 13,9 C 17,8 C 4,8 km/h
17.08.2018 00:40 25,1 C 17,9 C 48 % 78 % 1012,4 hPa 0,0 l/m 4,8 km/h O 90 14,0 C 17,9 C 6,4 km/h
17.08.2018 00:35 25,1 C 17,9 C 48 % 75 % 1012,4 hPa 0,0 l/m 3,2 km/h O-NO 67 13,4 C 17,9 C 4,8 km/h
17.08.2018 00:30 25,2 C 17,8 C 48 % 75 % 1012,5 hPa 0,0 l/m 1,6 km/h O-NO 67 13,3 C 17,8 C 3,2 km/h
17.08.2018 00:25 25,3 C 17,6 C 48 % 76 % 1012,4 hPa 0,0 l/m 3,2 km/h O-NO 67 13,3 C 17,6 C 4,8 km/h
17.08.2018 00:20 25,4 C 17,6 C 48 % 74 % 1012,5 hPa 0,0 l/m 3,2 km/h O-NO 67 12,9 C 17,6 C 4,8 km/h
17.08.2018 00:15 25,5 C 18,1 C 48 % 75 % 1012,6 hPa 0,0 l/m 3,2 km/h SO 135 13,6 C 18,1 C 6,4 km/h
17.08.2018 00:10 25,6 C 18,2 C 48 % 73 % 1012,4 hPa 0,0 l/m 3,2 km/h S-SO 157 13,3 C 18,2 C 4,8 km/h
17.08.2018 00:05 25,6 C 18,2 C 48 % 74 % 1012,3 hPa 0,0 l/m 3,2 km/h SO 135 13,5 C 18,2 C 6,4 km/h
17.08.2018 00:00 25,7 C 18,3 C 47 % 74 % 1012,3 hPa 0,0 l/m 3,2 km/h SO 135 13,6 C 18,3 C 4,8 km/h
16.08.2018 23:55 25,8 C 18,4 C 47 % 73 % 1012,2 hPa 0,0 l/m 3,2 km/h SO 135 13,5 C 18,4 C 4,8 km/h
16.08.2018 23:50 25,9 C 18,4 C 47 % 73 % 1012,3 hPa 0,0 l/m 1,6 km/h SO 135 13,5 C 18,4 C 4,8 km/h
16.08.2018 23:45 26,0 C 18,6 C 47 % 74 % 1012,3 hPa 0,0 l/m 3,2 km/h SO 135 13,9 C 18,6 C 4,8 km/h
16.08.2018 23:40 26,1 C 18,7 C 46 % 74 % 1012,2 hPa 0,0 l/m 3,2 km/h SO 135 14,0 C 18,7 C 4,8 km/h
16.08.2018 23:35 26,2 C 18,9 C 46 % 74 % 1012,3 hPa 0,0 l/m 3,2 km/h SO 135 14,2 C 18,9 C 4,8 km/h
16.08.2018 23:30 26,3 C 19,0 C 46 % 73 % 1012,3 hPa 0,0 l/m 4,8 km/h SO 135 14,0 C 19,0 C 6,4 km/h
16.08.2018 23:25 26,4 C 18,9 C 46 % 73 % 1012,3 hPa 0,0 l/m 3,2 km/h SO 135 13,9 C 18,9 C 4,8 km/h
16.08.2018 23:20 26,5 C 18,9 C 45 % 74 % 1012,3 hPa 0,0 l/m 3,2 km/h SO 135 14,2 C 18,9 C 4,8 km/h
16.08.2018 23:15 26,7 C 18,9 C 45 % 74 % 1012,3 hPa 0,0 l/m 3,2 km/h SO 135 14,2 C 18,9 C 4,8 km/h
16.08.2018 23:10 26,8 C 19,1 C 45 % 73 % 1012,4 hPa 0,0 l/m 3,2 km/h SO 135 14,1 C 19,1 C 6,4 km/h
16.08.2018 23:05 26,9 C 19,7 C 44 % 73 % 1012,4 hPa 0,0 l/m 0,0 km/h N 0 14,7 C 19,7 C 0,0 km/h
16.08.2018 23:00 27,1 C 20,1 C 44 % 70 % 1012,4 hPa 0,0 l/m 0,0 km/h N 0 14,5 C 20,1 C 0,0 km/h
16.08.2018 22:55 27,2 C 20,3 C 44 % 69 % 1012,3 hPa 0,0 l/m 0,0 km/h N 0 14,4 C 20,3 C 0,0 km/h
16.08.2018 22:50 27,3 C 20,4 C 43 % 68 % 1012,3 hPa 0,0 l/m 0,0 km/h N 0 14,3 C 20,4 C 0,0 km/h
16.08.2018 22:45 27,3 C 20,3 C 43 % 67 % 1012,2 hPa 0,0 l/m 0,0 km/h SO 135 14,0 C 20,3 C 1,6 km/h
16.08.2018 22:40 27,4 C 20,3 C 43 % 68 % 1012,3 hPa 0,0 l/m 0,0 km/h N 0 14,2 C 20,3 C 0,0 km/h
16.08.2018 22:35 27,6 C 20,3 C 43 % 68 % 1012,4 hPa 0,0 l/m 0,0 km/h N 0 14,2 C 20,3 C 0,0 km/h
16.08.2018 22:30 27,7 C 20,3 C 42 % 68 % 1012,5 hPa 0,0 l/m 0,0 km/h N 0 14,2 C 20,3 C 0,0 km/h
16.08.2018 22:25 27,8 C 20,4 C 42 % 68 % 1012,3 hPa 0,0 l/m 0,0 km/h N 0 14,3 C 20,4 C 0,0 km/h
16.08.2018 22:20 27,9 C 20,4 C 42 % 68 % 1012,4 hPa 0,0 l/m 0,0 km/h SO 135 14,3 C 20,4 C 1,6 km/h
16.08.2018 22:15 28,1 C 20,4 C 41 % 68 % 1012,3 hPa 0,0 l/m 0,0 km/h SO 135 14,3 C 20,4 C 3,2 km/h
16.08.2018 22:10 28,2 C 20,6 C 41 % 69 % 1012,4 hPa 0,0 l/m 0,0 km/h N 0 14,7 C 20,6 C 0,0 km/h
16.08.2018 22:05 28,4 C 20,8 C 41 % 67 % 1012,5 hPa 0,0 l/m 0,0 km/h N 0 14,4 C 20,8 C 0,0 km/h
16.08.2018 22:00 28,6 C 21,0 C 40 % 66 % 1012,3 hPa 0,0 l/m 0,0 km/h N 0 14,4 C 21,0 C 0,0 km/h
16.08.2018 21:55 28,7 C 21,1 C 40 % 66 % 1012,5 hPa 0,0 l/m 1,6 km/h SO 135 14,5 C 21,1 C 4,8 km/h
16.08.2018 21:50 28,9 C 21,2 C 39 % 64 % 1012,4 hPa 0,0 l/m 4,8 km/h SO 135 14,1 C 21,2 C 6,4 km/h
16.08.2018 21:45 29,2 C 21,3 C 39 % 64 % 1012,5 hPa 0,0 l/m 6,4 km/h SO 135 14,2 C 21,3 C 8,0 km/h
16.08.2018 21:40 29,4 C 21,4 C 38 % 64 % 1012,5 hPa 0,0 l/m 8,0 km/h SO 135 14,3 C 20,8 C 9,7 km/h
16.08.2018 21:35 29,7 C 21,7 C 38 % 64 % 1012,5 hPa 0,0 l/m 8,0 km/h SO 135 14,6 C 21,1 C 9,7 km/h
16.08.2018 21:30 29,9 C 21,9 C 37 % 63 % 1012,5 hPa 0,0 l/m 8,0 km/h SO 135 14,5 C 21,3 C 9,7 km/h
16.08.2018 21:25 30,2 C 22,2 C 37 % 62 % 1012,5 hPa 0,0 l/m 8,0 km/h SO 135 14,6 C 21,7 C 9,7 km/h
16.08.2018 21:20 30,4 C 22,2 C 36 % 63 % 1012,6 hPa 0,0 l/m 11,3 km/h SO 135 14,8 C 20,7 C 14,5 km/h
16.08.2018 21:15 30,7 C 21,6 C 36 % 64 % 1012,4 hPa 0,0 l/m 11,3 km/h SO 135 14,5 C 20,1 C 16,1 km/h
16.08.2018 21:10 31,1 C 22,1 C 35 % 63 % 1012,6 hPa 0,0 l/m 6,4 km/h S-SO 157 14,7 C 22,1 C 9,7 km/h
16.08.2018 21:05 31,3 C 22,9 C 35 % 61 % 1012,4 hPa 0,0 l/m 1,6 km/h S-SO 157 15,0 C 22,9 C 3,2 km/h
16.08.2018 21:00 31,6 C 23,4 C 34 % 58 % 1012,4 hPa 0,0 l/m 1,6 km/h S-SO 157 14,7 C 23,4 C 3,2 km/h
16.08.2018 20:55 31,8 C 23,8 C 34 % 56 % 1012,4 hPa 0,0 l/m 3,2 km/h S-SO 157 14,5 C 23,8 C 4,8 km/h
16.08.2018 20:50 32,1 C 24,2 C 33 % 54 % 1012,5 hPa 0,0 l/m 4,8 km/h S-SO 157 14,3 C 24,2 C 6,4 km/h
16.08.2018 20:45 32,3 C 24,4 C 33 % 53 % 1012,6 hPa 0,0 l/m 6,4 km/h S-SO 157 14,2 C 24,4 C 6,4 km/h
16.08.2018 20:40 32,6 C 24,5 C 32 % 54 % 1012,4 hPa 0,0 l/m 6,4 km/h S-SO 157 14,6 C 24,5 C 8,0 km/h
16.08.2018 20:35 32,9 C 24,7 C 32 % 53 % 1012,5 hPa 0,0 l/m 6,4 km/h S-SO 157 14,5 C 24,7 C 8,0 km/h
16.08.2018 20:30 33,2 C 25,1 C 31 % 52 % 1012,5 hPa 0,0 l/m 4,8 km/h S 180 14,5 C 25,1 C 6,4 km/h
16.08.2018 20:25 33,6 C 25,4 C 31 % 51 % 1012,6 hPa 0,0 l/m 1,6 km/h W 270 14,5 C 25,4 C 3,2 km/h
16.08.2018 20:20 33,8 C 25,7 C 30 % 51 % 1012,5 hPa 0,0 l/m 0,0 km/h W 270 14,8 C 25,7 C 1,6 km/h
16.08.2018 20:15 34,2 C 25,8 C 30 % 50 % 1012,4 hPa 0,0 l/m 0,0 km/h N 0 14,6 C 25,8 C 0,0 km/h
16.08.2018 20:10 34,6 C 25,9 C 29 % 50 % 1012,4 hPa 0,0 l/m 0,0 km/h N 0 14,7 C 25,9 C 0,0 km/h
16.08.2018 20:05 34,9 C 26,1 C 29 % 49 % 1012,4 hPa 0,0 l/m 1,6 km/h W 270 14,5 C 26,1 C 3,2 km/h
16.08.2018 20:00 35,3 C 26,2 C 28 % 49 % 1012,4 hPa 0,0 l/m 3,2 km/h W 270 14,6 C 26,2 C 3,2 km/h
16.08.2018 19:55 35,8 C 26,3 C 27 % 48 % 1012,2 hPa 0,0 l/m 3,2 km/h W 270 14,4 C 26,3 C 3,2 km/h
16.08.2018 19:50 36,2 C 26,6 C 27 % 47 % 1012,3 hPa 0,0 l/m 1,6 km/h W 270 14,3 C 26,6 C 3,2 km/h
16.08.2018 19:45 36,7 C 26,9 C 26 % 44 % 1012,3 hPa 0,0 l/m 3,2 km/h W 270 13,6 C 26,9 C 4,8 km/h
16.08.2018 19:40 37,1 C 27,1 C 26 % 43 % 1012,3 hPa 0,0 l/m 3,2 km/h W 270 13,4 C 27,1 C 4,8 km/h
16.08.2018 19:35 37,6 C 27,2 C 26 % 43 % 1012,3 hPa 0,0 l/m 1,6 km/h W 270 13,5 C 27,2 C 3,2 km/h
16.08.2018 19:30 38,1 C 27,3 C 25 % 43 % 1012,4 hPa 0,0 l/m 1,6 km/h W 270 13,6 C 27,3 C 3,2 km/h
16.08.2018 19:25 38,4 C 27,5 C 25 % 43 % 1012,3 hPa 0,0 l/m 1,6 km/h W 270 13,8 C 27,5 C 3,2 km/h
16.08.2018 19:20 38,8 C 27,7 C 25 % 42 % 1012,3 hPa 0,0 l/m 1,6 km/h W 270 13,6 C 27,7 C 3,2 km/h
16.08.2018 19:15 39,1 C 27,9 C 25 % 42 % 1012,3 hPa 0,0 l/m 1,6 km/h W 270 13,8 C 27,9 C 3,2 km/h
16.08.2018 19:10 39,3 C 28,2 C 25 % 42 % 1012,5 hPa 0,0 l/m 1,6 km/h W 270 14,0 C 28,2 C 3,2 km/h
16.08.2018 19:05 39,6 C 28,4 C 25 % 41 % 1012,5 hPa 0,0 l/m 0,0 km/h W 270 13,9 C 28,4 C 1,6 km/h
16.08.2018 19:00 39,7 C 28,6 C 25 % 41 % 1012,5 hPa 0,0 l/m 0,0 km/h W 270 14,0 C 28,6 C 1,6 km/h
16.08.2018 18:55 39,9 C 28,4 C 24 % 41 % 1012,5 hPa 0,0 l/m 0,0 km/h W 270 13,9 C 28,4 C 1,6 km/h
16.08.2018 18:50 40,0 C 28,2 C 24 % 41 % 1012,4 hPa 0,0 l/m 1,6 km/h W 270 13,7 C 28,2 C 4,8 km/h
16.08.2018 18:45 40,2 C 28,1 C 24 % 42 % 1012,4 hPa 0,0 l/m 1,6 km/h W 270 14,0 C 28,1 C 4,8 km/h
16.08.2018 18:40 40,3 C 27,9 C 24 % 42 % 1012,4 hPa 0,0 l/m 3,2 km/h W 270 13,8 C 27,9 C 9,7 km/h
16.08.2018 18:35 40,4 C 27,9 C 24 % 42 % 1012,5 hPa 0,0 l/m 4,8 km/h W 270 13,8 C 27,9 C 6,4 km/h
16.08.2018 18:30 40,5 C 27,9 C 24 % 42 % 1012,5 hPa 0,0 l/m 4,8 km/h W 270 13,8 C 27,9 C 6,4 km/h
16.08.2018 18:25 40,6 C 27,8 C 24 % 43 % 1012,5 hPa 0,0 l/m 4,8 km/h W 270 14,1 C 27,8 C 8,0 km/h
16.08.2018 18:20 40,6 C 27,8 C 24 % 42 % 1012,5 hPa 0,0 l/m 8,0 km/h W-SW 247 13,7 C 27,5 C 12,9 km/h
16.08.2018 18:15 40,6 C 27,9 C 24 % 42 % 1012,6 hPa 0,0 l/m 8,0 km/h W-SW 247 13,8 C 27,6 C 12,9 km/h
16.08.2018 18:10 40,6 C 27,9 C 24 % 42 % 1012,7 hPa 0,0 l/m 8,0 km/h W 270 13,8 C 27,6 C 14,5 km/h
16.08.2018 18:05 40,6 C 27,9 C 24 % 43 % 1012,6 hPa 0,0 l/m 8,0 km/h W-NW 292 14,1 C 27,6 C 12,9 km/h
16.08.2018 18:00 40,6 C 28,0 C 24 % 42 % 1012,6 hPa 0,0 l/m 9,7 km/h W-NW 292 13,9 C 27,5 C 14,5 km/h
16.08.2018 17:55 40,6 C 28,0 C 24 % 42 % 1012,6 hPa 0,0 l/m 8,0 km/h W-SW 247 13,9 C 27,8 C 12,9 km/h
16.08.2018 17:50 40,5 C 28,1 C 24 % 42 % 1012,7 hPa 0,0 l/m 6,4 km/h W-SW 247 14,0 C 28,1 C 12,9 km/h
16.08.2018 17:45 40,4 C 27,9 C 25 % 41 % 1012,7 hPa 0,0 l/m 6,4 km/h W-NW 292 13,4 C 27,9 C 14,5 km/h
16.08.2018 17:40 40,3 C 27,9 C 25 % 41 % 1012,8 hPa 0,0 l/m 11,3 km/h W-SW 247 13,4 C 27,2 C 16,1 km/h
16.08.2018 17:35 40,2 C 27,9 C 25 % 40 % 1012,8 hPa 0,0 l/m 11,3 km/h W 270 13,0 C 27,2 C 16,1 km/h
16.08.2018 17:30 40,1 C 27,9 C 25 % 41 % 1012,8 hPa 0,0 l/m 11,3 km/h W 270 13,4 C 27,2 C 16,1 km/h
16.08.2018 17:25 40,0 C 27,9 C 25 % 42 % 1012,8 hPa 0,0 l/m 6,4 km/h W-SW 247 13,8 C 27,9 C 16,1 km/h
16.08.2018 17:20 39,9 C 27,9 C 25 % 41 % 1012,9 hPa 0,0 l/m 9,7 km/h W-SW 247 13,4 C 27,4 C 14,5 km/h
16.08.2018 17:15 39,8 C 28,1 C 25 % 41 % 1012,9 hPa 0,0 l/m 12,9 km/h W-SW 247 13,6 C 27,3 C 16,1 km/h
16.08.2018 17:10 39,6 C 28,3 C 25 % 40 % 1012,8 hPa 0,0 l/m 6,4 km/h W-NW 292 13,4 C 28,3 C 14,5 km/h
16.08.2018 17:05 39,4 C 28,0 C 26 % 40 % 1012,8 hPa 0,0 l/m 6,4 km/h W 270 13,1 C 28,0 C 11,3 km/h
16.08.2018 17:00 39,3 C 28,0 C 26 % 40 % 1012,9 hPa 0,0 l/m 9,7 km/h W 270 13,1 C 27,5 C 17,7 km/h
16.08.2018 16:55 39,2 C 27,9 C 26 % 41 % 1012,9 hPa 0,0 l/m 6,4 km/h W 270 13,4 C 27,9 C 12,9 km/h
16.08.2018 16:50 39,0 C 27,9 C 26 % 42 % 1012,9 hPa 0,0 l/m 11,3 km/h W-SW 247 13,8 C 27,2 C 17,7 km/h
16.08.2018 16:45 38,9 C 27,8 C 27 % 42 % 1013,0 hPa 0,0 l/m 12,9 km/h W 270 13,7 C 26,9 C 17,7 km/h
16.08.2018 16:40 38,8 C 27,8 C 27 % 41 % 1013,1 hPa 0,0 l/m 9,7 km/h W-SW 247 13,3 C 27,3 C 17,7 km/h
16.08.2018 16:35 38,7 C 28,0 C 27 % 41 % 1013,2 hPa 0,0 l/m 9,7 km/h SW 225 13,5 C 27,5 C 16,1 km/h
16.08.2018 16:30 38,6 C 28,1 C 27 % 41 % 1013,2 hPa 0,0 l/m 6,4 km/h W-NW 292 13,6 C 28,1 C 16,1 km/h
16.08.2018 16:25 38,4 C 27,9 C 27 % 40 % 1013,2 hPa 0,0 l/m 9,7 km/h W-NW 292 13,0 C 27,4 C 14,5 km/h
16.08.2018 16:20 38,2 C 28,0 C 28 % 41 % 1013,2 hPa 0,0 l/m 9,7 km/h W-SW 247 13,5 C 27,5 C 14,5 km/h
16.08.2018 16:15 38,1 C 27,9 C 28 % 42 % 1013,2 hPa 0,0 l/m 6,4 km/h W 270 13,8 C 27,9 C 11,3 km/h
16.08.2018 16:10 37,9 C 27,8 C 28 % 43 % 1013,4 hPa 0,0 l/m 3,2 km/h W 270 14,1 C 27,8 C 8,0 km/h
16.08.2018 16:05 37,8 C 27,6 C 29 % 45 % 1013,5 hPa 0,0 l/m 4,8 km/h W 270 14,6 C 27,6 C 12,9 km/h
16.08.2018 16:00 37,6 C 27,7 C 29 % 44 % 1013,5 hPa 0,0 l/m 9,7 km/h SW 225 14,3 C 27,2 C 17,7 km/h
16.08.2018 15:55 37,4 C 27,7 C 29 % 44 % 1013,4 hPa 0,0 l/m 8,0 km/h W-SW 247 14,3 C 27,4 C 19,3 km/h
16.08.2018 15:50 37,3 C 27,7 C 29 % 44 % 1013,5 hPa 0,0 l/m 4,8 km/h N 360 14,3 C 27,7 C 12,9 km/h
16.08.2018 15:45 37,2 C 27,5 C 29 % 44 % 1013,5 hPa 0,0 l/m 6,4 km/h W-NW 292 14,1 C 27,5 C 14,5 km/h
16.08.2018 15:40 37,1 C 27,3 C 30 % 46 % 1013,5 hPa 0,0 l/m 4,8 km/h S-SO 157 14,6 C 27,3 C 12,9 km/h
16.08.2018 15:35 36,9 C 27,1 C 30 % 48 % 1013,6 hPa 0,0 l/m 9,7 km/h SW 225 15,1 C 26,5 C 17,7 km/h
16.08.2018 15:30 36,8 C 27,1 C 30 % 46 % 1013,5 hPa 0,0 l/m 9,7 km/h SW 225 14,5 C 26,5 C 19,3 km/h
16.08.2018 15:25 36,7 C 27,1 C 30 % 46 % 1013,5 hPa 0,0 l/m 11,3 km/h W 270 14,5 C 26,3 C 17,7 km/h
16.08.2018 15:20 36,6 C 27,1 C 30 % 46 % 1013,6 hPa 0,0 l/m 12,9 km/h SW 225 14,5 C 26,1 C 16,1 km/h
16.08.2018 15:15 36,4 C 27,4 C 30 % 46 % 1013,6 hPa 0,0 l/m 12,9 km/h W 270 14,7 C 26,4 C 17,7 km/h
16.08.2018 15:10 36,3 C 27,3 C 30 % 47 % 1013,8 hPa 0,0 l/m 4,8 km/h NW 315 15,0 C 27,3 C 16,1 km/h
16.08.2018 15:05 36,2 C 26,9 C 30 % 48 % 1013,9 hPa 0,0 l/m 4,8 km/h W 270 14,9 C 26,9 C 12,9 km/h
16.08.2018 15:00 36,1 C 26,8 C 30 % 48 % 1014,0 hPa 0,0 l/m 14,5 km/h W-SW 247 14,9 C 25,5 C 22,5 km/h
16.08.2018 14:55 36,0 C 26,9 C 30 % 45 % 1014,0 hPa 0,0 l/m 14,5 km/h W-SW 247 13,9 C 25,7 C 19,3 km/h
16.08.2018 14:50 36,0 C 26,9 C 31 % 46 % 1013,9 hPa 0,0 l/m 12,9 km/h W 270 14,3 C 25,9 C 22,5 km/h
16.08.2018 14:45 35,9 C 27,0 C 31 % 45 % 1014,0 hPa 0,0 l/m 12,9 km/h W 270 14,0 C 26,0 C 20,9 km/h
16.08.2018 14:40 35,8 C 26,7 C 31 % 47 % 1014,0 hPa 0,0 l/m 11,3 km/h W 270 14,4 C 25,8 C 17,7 km/h
16.08.2018 14:35 35,7 C 26,6 C 32 % 48 % 1014,0 hPa 0,0 l/m 11,3 km/h W 270 14,7 C 25,7 C 19,3 km/h
16.08.2018 14:30 35,6 C 26,3 C 32 % 49 % 1014,0 hPa 0,0 l/m 11,3 km/h W-SW 247 14,7 C 25,4 C 19,3 km/h
16.08.2018 14:25 35,6 C 26,3 C 32 % 49 % 1014,0 hPa 0,0 l/m 11,3 km/h W 270 14,7 C 25,4 C 19,3 km/h
16.08.2018 14:20 35,5 C 26,5 C 33 % 49 % 1014,0 hPa 0,0 l/m 11,3 km/h W-SW 247 14,9 C 25,6 C 17,7 km/h
16.08.2018 14:15 35,3 C 26,1 C 33 % 51 % 1014,1 hPa 0,0 l/m 9,7 km/h SW 225 15,2 C 25,4 C 20,9 km/h
16.08.2018 14:10 35,3 C 26,1 C 33 % 50 % 1014,1 hPa 0,0 l/m 9,7 km/h W 270 14,8 C 25,4 C 17,7 km/h
16.08.2018 14:05 35,2 C 26,1 C 33 % 50 % 1014,2 hPa 0,0 l/m 9,7 km/h W 270 14,8 C 25,4 C 17,7 km/h
16.08.2018 14:00 35,1 C 26,0 C 33 % 51 % 1014,2 hPa 0,0 l/m 9,7 km/h W-SW 247 15,1 C 25,3 C 14,5 km/h
16.08.2018 13:55 35,1 C 25,9 C 33 % 50 % 1014,2 hPa 0,0 l/m 9,7 km/h W-NW 292 14,7 C 25,2 C 17,7 km/h
16.08.2018 13:50 35,1 C 25,9 C 34 % 51 % 1014,3 hPa 0,0 l/m 12,9 km/h W 270 15,0 C 24,7 C 17,7 km/h
16.08.2018 13:45 35,0 C 25,8 C 34 % 51 % 1014,3 hPa 0,0 l/m 4,8 km/h W 270 14,9 C 25,8 C 14,5 km/h
16.08.2018 13:40 34,9 C 25,6 C 34 % 52 % 1014,4 hPa 0,0 l/m 8,0 km/h W 270 15,0 C 25,2 C 14,5 km/h
16.08.2018 13:35 34,9 C 25,7 C 34 % 53 % 1014,5 hPa 0,0 l/m 11,3 km/h W-SW 247 15,4 C 24,7 C 16,1 km/h
16.08.2018 13:30 34,8 C 25,4 C 34 % 53 % 1014,5 hPa 0,0 l/m 9,7 km/h W-SW 247 15,1 C 24,7 C 17,7 km/h
16.08.2018 13:25 34,8 C 25,4 C 34 % 53 % 1014,6 hPa 0,0 l/m 12,9 km/h W 270 15,1 C 24,1 C 16,1 km/h
16.08.2018 13:20 34,7 C 25,4 C 35 % 53 % 1014,7 hPa 0,0 l/m 6,4 km/h SW 225 15,1 C 25,4 C 14,5 km/h
16.08.2018 13:15 34,6 C 25,4 C 35 % 52 % 1014,8 hPa 0,0 l/m 14,5 km/h SW 225 14,8 C 23,9 C 22,5 km/h
16.08.2018 13:10 34,5 C 25,5 C 35 % 53 % 1014,8 hPa 0,0 l/m 12,9 km/h SW 225 15,2 C 24,2 C 20,9 km/h
16.08.2018 13:05 34,4 C 25,5 C 35 % 54 % 1014,8 hPa 0,0 l/m 9,7 km/h W-SW 247 15,5 C 24,8 C 17,7 km/h
16.08.2018 13:00 34,3 C 25,5 C 35 % 53 % 1014,8 hPa 0,0 l/m 4,8 km/h S-SW 202 15,2 C 25,5 C 12,9 km/h
16.08.2018 12:55 34,2 C 24,9 C 35 % 55 % 1014,9 hPa 0,0 l/m 6,4 km/h W 270 15,2 C 24,9 C 12,9 km/h
16.08.2018 12:50 34,1 C 24,8 C 36 % 54 % 1014,9 hPa 0,0 l/m 9,7 km/h SW 225 14,8 C 24,0 C 22,5 km/h
16.08.2018 12:45 34,1 C 24,7 C 36 % 56 % 1014,9 hPa 0,0 l/m 9,7 km/h W-SW 247 15,3 C 23,9 C 19,3 km/h
16.08.2018 12:40 34,0 C 24,7 C 36 % 55 % 1014,8 hPa 0,0 l/m 9,7 km/h SW 225 15,0 C 23,9 C 19,3 km/h
16.08.2018 12:35 33,9 C 24,8 C 36 % 55 % 1015,0 hPa 0,0 l/m 9,7 km/h W 270 15,1 C 24,0 C 19,3 km/h
16.08.2018 12:30 33,8 C 24,7 C 36 % 56 % 1014,9 hPa 0,0 l/m 6,4 km/h SW 225 15,3 C 24,7 C 22,5 km/h
16.08.2018 12:25 33,7 C 24,8 C 36 % 55 % 1014,9 hPa 0,0 l/m 11,3 km/h SW 225 15,1 C 23,7 C 22,5 km/h
16.08.2018 12:20 33,6 C 24,7 C 36 % 57 % 1015,1 hPa 0,0 l/m 3,2 km/h S 180 15,6 C 24,7 C 12,9 km/h
16.08.2018 12:15 33,4 C 24,4 C 36 % 57 % 1015,3 hPa 0,0 l/m 8,0 km/h W-SW 247 15,3 C 24,0 C 14,5 km/h
16.08.2018 12:10 33,3 C 24,1 C 37 % 59 % 1015,3 hPa 0,0 l/m 3,2 km/h O-NO 67 15,6 C 24,1 C 6,4 km/h
16.08.2018 12:05 33,2 C 23,9 C 37 % 59 % 1015,4 hPa 0,0 l/m 3,2 km/h O-NO 67 15,4 C 23,9 C 8,0 km/h
16.08.2018 12:00 33,1 C 23,8 C 37 % 59 % 1015,3 hPa 0,0 l/m 4,8 km/h SW 225 15,3 C 23,8 C 12,9 km/h
16.08.2018 11:55 32,9 C 24,0 C 37 % 58 % 1015,3 hPa 0,0 l/m 6,4 km/h SW 225 15,2 C 24,0 C 11,3 km/h
16.08.2018 11:50 32,7 C 24,1 C 37 % 58 % 1015,3 hPa 0,0 l/m 4,8 km/h O-SO 112 15,3 C 24,1 C 11,3 km/h
16.08.2018 11:45 32,5 C 23,6 C 38 % 61 % 1015,4 hPa 0,0 l/m 1,6 km/h NO 45 15,6 C 23,6 C 4,8 km/h
16.08.2018 11:40 32,4 C 23,3 C 37 % 61 % 1015,6 hPa 0,0 l/m 4,8 km/h N-NO 22 15,3 C 23,3 C 9,7 km/h
16.08.2018 11:35 32,3 C 23,1 C 38 % 62 % 1015,6 hPa 0,0 l/m 4,8 km/h N-NW 337 15,4 C 23,1 C 12,9 km/h
16.08.2018 11:30 32,2 C 23,1 C 38 % 62 % 1015,7 hPa 0,0 l/m 4,8 km/h N 360 15,4 C 23,1 C 8,0 km/h
16.08.2018 11:25 32,2 C 22,9 C 38 % 62 % 1015,7 hPa 0,0 l/m 4,8 km/h N 360 15,2 C 22,9 C 9,7 km/h
16.08.2018 11:20 32,1 C 22,7 C 38 % 63 % 1015,7 hPa 0,0 l/m 4,8 km/h N 360 15,3 C 22,7 C 8,0 km/h
16.08.2018 11:15 32,1 C 22,5 C 38 % 63 % 1015,7 hPa 0,0 l/m 4,8 km/h N 360 15,1 C 22,5 C 12,9 km/h
16.08.2018 11:10 31,9 C 22,3 C 38 % 63 % 1015,6 hPa 0,0 l/m 4,8 km/h SW 225 14,9 C 22,3 C 8,0 km/h
16.08.2018 11:05 31,8 C 22,4 C 38 % 64 % 1015,7 hPa 0,0 l/m 6,4 km/h N 360 15,2 C 22,4 C 9,7 km/h
16.08.2018 11:00 31,8 C 22,3 C 38 % 64 % 1015,8 hPa 0,0 l/m 3,2 km/h NO 45 15,2 C 22,3 C 8,0 km/h
16.08.2018 10:55 31,6 C 22,0 C 38 % 65 % 1015,8 hPa 0,0 l/m 3,2 km/h O 90 15,1 C 22,0 C 6,4 km/h
16.08.2018 10:50 31,5 C 21,9 C 38 % 65 % 1016,0 hPa 0,0 l/m 4,8 km/h N-NO 22 15,0 C 21,9 C 12,9 km/h
16.08.2018 10:45 31,5 C 21,8 C 38 % 66 % 1016,1 hPa 0,0 l/m 8,0 km/h N 360 15,2 C 21,2 C 12,9 km/h
16.08.2018 10:40 31,4 C 21,9 C 38 % 66 % 1016,2 hPa 0,0 l/m 4,8 km/h O 90 15,3 C 21,9 C 12,9 km/h
16.08.2018 10:35 31,3 C 21,7 C 38 % 66 % 1016,1 hPa 0,0 l/m 3,2 km/h O-SO 112 15,1 C 21,7 C 6,4 km/h
16.08.2018 10:30 31,3 C 21,6 C 38 % 67 % 1016,2 hPa 0,0 l/m 6,4 km/h O-NO 67 15,2 C 21,6 C 11,3 km/h
16.08.2018 10:25 31,2 C 21,5 C 39 % 66 % 1016,2 hPa 0,0 l/m 6,4 km/h O-NO 67 14,9 C 21,5 C 14,5 km/h
16.08.2018 10:20 31,0 C 21,2 C 39 % 68 % 1016,3 hPa 0,0 l/m 3,2 km/h O-SO 112 15,1 C 21,2 C 9,7 km/h
16.08.2018 10:15 30,9 C 21,0 C 39 % 69 % 1016,3 hPa 0,0 l/m 4,8 km/h O 90 15,1 C 21,0 C 9,7 km/h
16.08.2018 10:10 30,8 C 20,7 C 39 % 69 % 1016,3 hPa 0,0 l/m 6,4 km/h NO 45 14,8 C 20,7 C 12,9 km/h
16.08.2018 10:05 30,7 C 20,7 C 39 % 69 % 1016,3 hPa 0,0 l/m 3,2 km/h N-NO 22 14,8 C 20,7 C 6,4 km/h
16.08.2018 10:00 30,7 C 20,5 C 39 % 70 % 1016,4 hPa 0,0 l/m 4,8 km/h NO 45 14,8 C 20,5 C 8,0 km/h
16.08.2018 09:55 30,6 C 20,4 C 40 % 71 % 1016,4 hPa 0,0 l/m 4,8 km/h N-NO 22 15,0 C 20,4 C 9,7 km/h
16.08.2018 09:50 30,5 C 20,3 C 40 % 71 % 1016,4 hPa 0,0 l/m 3,2 km/h NO 45 14,9 C 20,3 C 8,0 km/h
16.08.2018 09:45 30,3 C 19,9 C 40 % 72 % 1016,5 hPa 0,0 l/m 3,2 km/h NO 45 14,7 C 19,9 C 6,4 km/h
16.08.2018 09:40 30,3 C 19,8 C 40 % 72 % 1016,5 hPa 0,0 l/m 3,2 km/h NO 45 14,6 C 19,8 C 6,4 km/h
16.08.2018 09:35 30,2 C 19,8 C 40 % 73 % 1016,4 hPa 0,0 l/m 1,6 km/h N-NO 22 14,8 C 19,8 C 3,2 km/h
16.08.2018 09:30 30,1 C 19,4 C 40 % 74 % 1016,5 hPa 0,0 l/m 1,6 km/h N-NO 22 14,6 C 19,4 C 4,8 km/h
16.08.2018 09:25 29,9 C 19,1 C 40 % 75 % 1016,5 hPa 0,0 l/m 1,6 km/h N-NO 22 14,6 C 19,1 C 4,8 km/h
16.08.2018 09:20 29,8 C 18,7 C 41 % 76 % 1016,5 hPa 0,0 l/m 1,6 km/h N-NO 22 14,4 C 18,7 C 4,8 km/h
16.08.2018 09:15 29,6 C 18,5 C 41 % 77 % 1016,4 hPa 0,0 l/m 3,2 km/h N-NO 22 14,4 C 18,5 C 4,8 km/h
16.08.2018 09:10 29,4 C 18,3 C 41 % 77 % 1016,4 hPa 0,0 l/m 3,2 km/h N 360 14,2 C 18,3 C 6,4 km/h
16.08.2018 09:05 29,3 C 18,1 C 41 % 78 % 1016,5 hPa 0,0 l/m 3,2 km/h N 360 14,2 C 18,1 C 6,4 km/h
16.08.2018 09:00 29,2 C 17,7 C 41 % 79 % 1016,4 hPa 0,0 l/m 3,2 km/h NO 45 14,0 C 17,7 C 8,0 km/h
16.08.2018 08:55 29,1 C 17,6 C 41 % 79 % 1016,4 hPa 0,0 l/m 4,8 km/h NO 45 13,9 C 17,6 C 6,4 km/h
16.08.2018 08:50 28,9 C 17,3 C 42 % 80 % 1016,4 hPa 0,0 l/m 1,6 km/h NO 45 13,8 C 17,3 C 4,8 km/h
16.08.2018 08:45 28,7 C 17,0 C 42 % 81 % 1016,5 hPa 0,0 l/m 3,2 km/h NO 45 13,7 C 17,0 C 4,8 km/h
16.08.2018 08:40 28,6 C 16,8 C 42 % 81 % 1016,6 hPa 0,0 l/m 4,8 km/h NO 45 13,5 C 16,8 C 8,0 km/h
16.08.2018 08:35 28,4 C 16,6 C 42 % 82 % 1016,6 hPa 0,0 l/m 3,2 km/h NO 45 13,5 C 16,6 C 6,4 km/h
16.08.2018 08:30 28,3 C 16,3 C 43 % 82 % 1016,6 hPa 0,0 l/m 3,2 km/h NO 45 13,2 C 16,3 C 6,4 km/h
16.08.2018 08:25 28,1 C 16,1 C 43 % 82 % 1016,6 hPa 0,0 l/m 4,8 km/h NO 45 13,0 C 16,1 C 8,0 km/h
16.08.2018 08:20 27,9 C 15,9 C 43 % 82 % 1016,6 hPa 0,0 l/m 4,8 km/h N-NO 22 12,8 C 15,9 C 9,7 km/h
16.08.2018 08:15 27,8 C 15,9 C 44 % 83 % 1016,7 hPa 0,0 l/m 4,8 km/h NO 45 13,0 C 15,9 C 9,7 km/h
16.08.2018 08:10 27,6 C 15,9 C 44 % 84 % 1016,8 hPa 0,0 l/m 3,2 km/h NO 45 13,2 C 15,9 C 6,4 km/h
16.08.2018 08:05 27,4 C 15,7 C 44 % 84 % 1016,7 hPa 0,0 l/m 3,2 km/h N-NO 22 13,0 C 15,7 C 6,4 km/h
16.08.2018 08:00 27,2 C 15,5 C 45 % 84 % 1016,9 hPa 0,0 l/m 3,2 km/h NO 45 12,8 C 15,5 C 4,8 km/h
16.08.2018 07:55 27,0 C 15,4 C 45 % 84 % 1016,9 hPa 0,0 l/m 3,2 km/h NO 45 12,7 C 15,4 C 8,0 km/h
16.08.2018 07:50 26,7 C 15,5 C 46 % 85 % 1016,9 hPa 0,0 l/m 1,6 km/h O 90 13,0 C 15,5 C 4,8 km/h
16.08.2018 07:45 26,6 C 15,3 C 46 % 85 % 1016,9 hPa 0,0 l/m 3,2 km/h O 90 12,8 C 15,3 C 4,8 km/h
16.08.2018 07:40 26,3 C 15,2 C 46 % 86 % 1017,0 hPa 0,0 l/m 1,6 km/h O-SO 112 12,9 C 15,2 C 3,2 km/h
16.08.2018 07:35 26,1 C 14,9 C 47 % 86 % 1017,0 hPa 0,0 l/m 1,6 km/h O-SO 112 12,6 C 14,9 C 3,2 km/h
16.08.2018 07:30 25,8 C 14,8 C 47 % 86 % 1017,0 hPa 0,0 l/m 1,6 km/h SO 135 12,5 C 14,8 C 4,8 km/h
16.08.2018 07:25 25,6 C 14,7 C 48 % 87 % 1016,9 hPa 0,0 l/m 1,6 km/h SO 135 12,6 C 14,7 C 3,2 km/h
16.08.2018 07:20 25,4 C 14,5 C 48 % 87 % 1017,1 hPa 0,0 l/m 1,6 km/h SO 135 12,4 C 14,5 C 3,2 km/h
16.08.2018 07:15 25,2 C 14,4 C 48 % 87 % 1017,3 hPa 0,0 l/m 1,6 km/h SO 135 12,3 C 14,4 C 3,2 km/h
16.08.2018 07:10 24,9 C 14,3 C 49 % 88 % 1017,2 hPa 0,0 l/m 0,0 km/h SO 135 12,3 C 14,3 C 1,6 km/h
16.08.2018 07:05 24,8 C 14,3 C 49 % 88 % 1017,1 hPa 0,0 l/m 0,0 km/h SO 135 12,3 C 14,3 C 3,2 km/h
16.08.2018 07:00 24,7 C 14,2 C 49 % 88 % 1017,2 hPa 0,0 l/m 0,0 km/h SO 135 12,2 C 14,2 C 3,2 km/h
16.08.2018 06:55 24,6 C 14,1 C 49 % 89 % 1017,3 hPa 0,0 l/m 1,6 km/h S-SO 157 12,3 C 14,1 C 1,6 km/h
16.08.2018 06:50 24,5 C 14,1 C 49 % 89 % 1017,2 hPa 0,0 l/m 0,0 km/h S-SO 157 12,3 C 14,1 C 1,6 km/h
16.08.2018 06:45 24,4 C 13,8 C 49 % 91 % 1017,3 hPa 0,0 l/m 0,0 km/h N 0 12,4 C 13,8 C 0,0 km/h
16.08.2018 06:40 24,3 C 13,4 C 50 % 92 % 1017,2 hPa 0,0 l/m 0,0 km/h N 0 12,1 C 13,4 C 0,0 km/h
16.08.2018 06:35 23,9 C 13,1 C 51 % 92 % 1017,0 hPa 0,0 l/m 0,0 km/h N 0 11,8 C 13,1 C 0,0 km/h
16.08.2018 06:30 23,6 C 12,9 C 51 % 92 % 1016,9 hPa 0,0 l/m 0,0 km/h N 0 11,6 C 12,9 C 0,0 km/h
16.08.2018 06:25 23,3 C 12,7 C 52 % 92 % 1017,0 hPa 0,0 l/m 0,0 km/h SO 135 11,4 C 12,7 C 1,6 km/h
16.08.2018 06:20 22,9 C 12,7 C 53 % 92 % 1016,9 hPa 0,0 l/m 0,0 km/h SO 135 11,4 C 12,7 C 1,6 km/h
16.08.2018 06:15 22,6 C 12,6 C 54 % 92 % 1016,9 hPa 0,0 l/m 3,2 km/h SO 135 11,3 C 12,6 C 4,8 km/h
16.08.2018 06:10 22,2 C 12,6 C 55 % 92 % 1017,0 hPa 0,0 l/m 3,2 km/h O-SO 112 11,3 C 12,6 C 4,8 km/h
16.08.2018 06:05 21,8 C 12,5 C 56 % 93 % 1017,1 hPa 0,0 l/m 3,2 km/h O-SO 112 11,4 C 12,5 C 4,8 km/h
16.08.2018 06:00 21,4 C 12,4 C 56 % 93 % 1017,0 hPa 0,0 l/m 3,2 km/h O-SO 112 11,3 C 12,4 C 4,8 km/h
16.08.2018 05:55 21,1 C 12,4 C 57 % 92 % 1017,0 hPa 0,0 l/m 3,2 km/h O-SO 112 11,1 C 12,4 C 4,8 km/h
16.08.2018 05:50 20,8 C 12,4 C 58 % 92 % 1016,9 hPa 0,0 l/m 3,2 km/h SO 135 11,1 C 12,4 C 4,8 km/h
16.08.2018 05:45 20,5 C 12,5 C 58 % 92 % 1017,0 hPa 0,0 l/m 3,2 km/h SO 135 11,2 C 12,5 C 4,8 km/h
16.08.2018 05:40 20,3 C 12,4 C 59 % 92 % 1017,1 hPa 0,0 l/m 3,2 km/h SO 135 11,1 C 12,4 C 4,8 km/h
16.08.2018 05:35 20,2 C 12,4 C 59 % 92 % 1017,0 hPa 0,0 l/m 3,2 km/h SO 135 11,1 C 12,4 C 4,8 km/h
16.08.2018 05:30 20,2 C 12,5 C 59 % 92 % 1017,0 hPa 0,0 l/m 3,2 km/h SO 135 11,2 C 12,5 C 4,8 km/h
16.08.2018 05:25 20,2 C 12,5 C 59 % 92 % 1017,0 hPa 0,0 l/m 3,2 km/h SO 135 11,2 C 12,5 C 4,8 km/h
16.08.2018 05:20 20,2 C 12,5 C 59 % 92 % 1017,0 hPa 0,0 l/m 4,8 km/h SO 135 11,2 C 12,5 C 6,4 km/h
16.08.2018 05:15 20,2 C 12,6 C 59 % 91 % 1017,0 hPa 0,0 l/m 4,8 km/h SO 135 11,2 C 12,6 C 4,8 km/h
16.08.2018 05:10 20,2 C 12,7 C 59 % 91 % 1017,0 hPa 0,0 l/m 3,2 km/h SO 135 11,3 C 12,7 C 4,8 km/h
16.08.2018 05:05 20,2 C 12,7 C 59 % 91 % 1017,1 hPa 0,0 l/m 3,2 km/h SO 135 11,3 C 12,7 C 4,8 km/h
16.08.2018 05:00 20,3 C 12,8 C 59 % 92 % 1017,0 hPa 0,0 l/m 3,2 km/h SO 135 11,5 C 12,8 C 4,8 km/h
16.08.2018 04:55 20,3 C 12,7 C 59 % 92 % 1017,1 hPa 0,0 l/m 3,2 km/h SO 135 11,4 C 12,7 C 4,8 km/h
16.08.2018 04:50 20,4 C 12,7 C 59 % 91 % 1017,1 hPa 0,0 l/m 3,2 km/h SO 135 11,3 C 12,7 C 4,8 km/h
16.08.2018 04:45 20,4 C 12,7 C 59 % 92 % 1017,2 hPa 0,0 l/m 1,6 km/h SO 135 11,4 C 12,7 C 4,8 km/h
16.08.2018 04:40 20,4 C 12,7 C 59 % 91 % 1017,2 hPa 0,0 l/m 3,2 km/h SO 135 11,3 C 12,7 C 4,8 km/h
16.08.2018 04:35 20,5 C 12,7 C 59 % 91 % 1017,2 hPa 0,0 l/m 3,2 km/h SO 135 11,3 C 12,7 C 4,8 km/h
16.08.2018 04:30 20,6 C 12,9 C 59 % 91 % 1017,2 hPa 0,0 l/m 3,2 km/h SO 135 11,5 C 12,9 C 4,8 km/h
16.08.2018 04:25 20,6 C 13,1 C 59 % 92 % 1017,2 hPa 0,0 l/m 0,0 km/h SO 135 11,8 C 13,1 C 1,6 km/h
16.08.2018 04:20 20,6 C 13,1 C 59 % 92 % 1017,4 hPa 0,0 l/m 0,0 km/h N 0 11,8 C 13,1 C 0,0 km/h
16.08.2018 04:15 20,7 C 13,1 C 59 % 92 % 1017,3 hPa 0,0 l/m 0,0 km/h N 0 11,8 C 13,1 C 0,0 km/h
16.08.2018 04:10 20,7 C 13,1 C 59 % 92 % 1017,4 hPa 0,0 l/m 0,0 km/h N 0 11,8 C 13,1 C 0,0 km/h
16.08.2018 04:05 20,7 C 12,9 C 59 % 91 % 1017,5 hPa 0,0 l/m 0,0 km/h SO 135 11,5 C 12,9 C 3,2 km/h
16.08.2018 04:00 20,8 C 12,9 C 58 % 91 % 1017,5 hPa 0,0 l/m 1,6 km/h SO 135 11,5 C 12,9 C 3,2 km/h
_ Min-Zeit 05:05 06:00 17:50 16:25 02:50 - 04:05 - - 05:35 05:35 04:10
Minimum _ 20,2 C 12,3 C 24 % 40 % 1012,0 hPa - 0,0 km/h - - 11,1 C 12,4 C 0,0 km/h
_ Max-Zeit 17:55 19:00 04:05 06:00 04:00 04:00 13:15 - - 11:45 19:00 12:25
Maximum _ 40,6 C 28,6 C 59 % 93 % 1017,5 hPa 0,0 l/m 14,5 km/h
SW
- - 15,6 C 28,6 C 22,5 km/h
SW
Durchschnitt _ 29,6 C 20,5 C 41 % 68 % 1014,5 hPa #0,0 l/m 4,3 km/h SO - 13,6 C 20,4 C 7,7 km/h